KC3BAN-13 Weather Reports


Display with metric or nautical units.
time (UTC)temp
F
wind
direction
speed
MPH
gust
MPH
rain 1hr
in
rain 24hr
in
rain mn
in
humidity
%
barometer
mb
20260901161759 90 205 1.0 8.0 0.00 0.00 0.00 64 1008.5
20260901161253 90 51 2.0 10.0 0.00 0.00 0.00 63 1008.6
20260901160747 90 195 2.0 10.0 0.00 0.00 0.00 61 1008.7
20260901160241 90 319 1.0 7.0 0.00 0.00 0.00 63 1008.6
20260901155953 90 166 2.0 7.0 0.00 0.00 0.00 65 1008.8
20260901155230 90 233 1.0 6.0 0.00 0.00 0.00 63 1008.8
20260901154723 90 179 1.0 5.0 0.00 0.00 0.00 65 1008.8
20260901154217 89 161 2.0 6.0 0.00 0.00 0.00 65 1009.0
20260901153711 89 180 2.0 8.0 0.00 0.00 0.00 63 1008.9
20260901153205 89 218 2.0 8.0 0.00 0.00 0.00 65 1008.9
20260901152700 88 198 1.0 6.0 0.00 0.00 0.00 67 1009.0
20260901152414 88 162 2.0 8.0 0.00 0.00 0.00 66 1009.1
20260901151646 88 213 2.0 10.0 0.00 0.00 0.00 66 1009.1
20260901151141 88 173 2.0 10.0 0.00 0.00 0.00 68 1009.1
20260901150634 87 145 2.0 7.0 0.00 0.00 0.00 71 1009.1
20260901150130 87 155 2.0 5.0 0.00 0.00 0.00 71 1009.2
20260901145623 87 297 1.0 5.0 0.00 0.00 0.00 71 1009.3
20260901145340 86 141 1.0 6.0 0.00 0.00 0.00 73 1009.3
20260901144611 86 184 2.0 7.0 0.00 0.00 0.00 72 1009.3
20260901144324 86 181 1.0 7.0 0.00 0.00 0.00 75 1009.3
20260901143825 85 213 0.0 3.0 0.00 0.00 0.00 76 1009.3
20260901143053 85 250 1.0 4.0 0.00 0.00 0.00 77 1009.1
20260901142547 84 195 1.0 4.0 0.00 0.00 0.00 79 1009.1
20260901142041 84 200 0.0 3.0 0.00 0.00 0.00 81 1009.2
20260901141535 84 214 0.0 2.0 0.00 0.00 0.00 80 1009.2
20260901141030 83 215 0.0 2.0 0.00 0.00 0.00 80 1009.3
20260901140017 83 211 1.0 5.0 0.00 0.00 0.00 82 1009.0
20260901135511 82 240 1.0 5.0 0.00 0.00 0.00 83 1009.1
20260901135005 81 141 2.0 6.0 0.00 0.00 0.00 84 1009.3
20260901134500 81 226 2.0 7.0 0.00 0.00 0.00 84 1009.3
20260901133953 80 179 1.0 7.0 0.00 0.00 0.00 83 1009.3
20260901133446 80 165 1.0 5.0 0.00 0.00 0.00 81 1009.4
20260901133204 79 214 1.0 5.0 0.00 0.00 0.00 80 1009.4
20260901132435 79 300 1.0 4.0 0.00 0.00 0.00 78 1009.5
20260901131931 78 218 1.0 4.0 0.00 0.00 0.00 77 1009.5
20260901130917 78 199 1.0 4.0 0.00 0.00 0.00 73 1009.7
20260901130411 78 219 1.0 4.0 0.00 0.00 0.00 71 1009.7
20260901125905 77 208 1.0 4.0 0.00 0.00 0.00 71 1009.7
20260901125400 77 154 0.0 3.0 0.00 0.00 0.00 70 1009.7
20260901124852 77 222 1.0 4.0 0.00 0.00 0.00 70 1009.7
20260901124611 77 215 0.0 4.0 0.00 0.00 0.00 70 1009.7
20260901123841 77 205 0.0 2.0 0.00 0.00 0.00 69 1009.7
20260901123334 76 233 1.0 3.0 0.00 0.00 0.00 70 1009.7
20260901123100 76 201 1.0 3.0 0.00 0.00 0.00 70 1009.7
20260901122323 76 233 1.0 3.0 0.00 0.00 0.00 71 1009.7
20260901121817 76 208 1.0 4.0 0.00 0.00 0.00 71 1009.6
20260901121534 76 217 1.0 4.0 0.00 0.00 0.00 71 1009.6
20260901120805 76 262 1.0 4.0 0.00 0.00 0.00 71 1009.6
20260901120520 75 205 1.0 3.0 0.00 0.00 0.00 71 1009.6
20260901115753 75 195 0.0 2.0 0.00 0.00 0.00 71 1009.6
20260901115247 75 211 0.0 2.0 0.00 0.00 0.00 71 1009.6
20260901114741 74 212 0.0 2.0 0.00 0.00 0.00 71 1009.5
20260901114458 74 208 0.0 1.0 0.00 0.00 0.00 71 1009.4
20260901113731 74 208 0.0 0.0 0.00 0.00 0.00 71 1009.5
20260901113222 74 208 0.0 1.0 0.00 0.00 0.00 71 1009.4
20260901112717 74 208 0.0 1.0 0.00 0.00 0.00 71 1009.4
20260901112211 74 208 0.0 0.0 0.00 0.00 0.00 71 1009.4
20260901111705 74 208 0.0 0.0 0.00 0.00 0.00 71 1009.4
20260901111200 74 208 0.0 0.0 0.00 0.00 0.00 71 1009.5
20260901110653 74 208 0.0 0.0 0.00 0.00 0.00 71 1009.5
20260901110147 74 208 0.0 0.0 0.00 0.00 0.00 71 1009.5
20260901105642 74 208 0.0 1.0 0.00 0.00 0.00 71 1009.5
20260901105357 74 208 0.0 1.0 0.00 0.00 0.00 71 1009.5
20260901104629 74 208 0.0 1.0 0.00 0.00 0.00 71 1009.4
20260901103617 74 208 0.0 1.0 0.00 0.00 0.00 71 1009.3
20260901103110 74 208 0.0 1.0 0.00 0.00 0.00 71 1009.1
20260901102605 74 208 0.0 1.0 0.00 0.00 0.00 71 1009.2
20260901102100 74 208 0.0 1.0 0.00 0.00 0.00 71 1009.1
20260901101553 74 208 0.0 0.0 0.00 0.00 0.00 71 1009.0
20260901101046 74 208 0.0 0.0 0.00 0.00 0.00 71 1008.9
20260901100541 74 208 0.0 0.0 0.00 0.00 0.00 71 1008.9
20260901100034 74 208 0.0 1.0 0.00 0.00 0.00 71 1008.9
20260901095530 74 208 0.0 1.0 0.00 0.00 0.00 71 1008.8
20260901095022 74 208 0.0 1.0 0.00 0.00 0.00 71 1008.8
20260901094516 74 208 0.0 1.0 0.00 0.00 0.00 71 1009.0
20260901094011 74 208 0.0 1.0 0.00 0.00 0.00 71 1009.1
20260901093505 74 281 0.0 1.0 0.00 0.00 0.00 71 1009.2
20260901093001 74 214 0.0 1.0 0.00 0.00 0.00 71 1009.2
20260901092453 74 214 0.0 0.0 0.00 0.00 0.00 71 1009.3
20260901091947 74 214 0.0 1.0 0.00 0.00 0.00 71 1009.3
20260901091442 74 214 0.0 1.0 0.00 0.00 0.00 71 1009.3
20260901090935 74 214 0.0 0.0 0.00 0.00 0.00 71 1009.4
20260901090430 74 214 0.0 1.0 0.00 0.00 0.00 71 1009.4
20260901085923 74 214 0.0 1.0 0.00 0.00 0.00 71 1009.3
20260901085417 74 214 0.0 0.0 0.00 0.00 0.00 71 1009.3
20260901084910 74 214 0.0 0.0 0.00 0.00 0.00 71 1009.2
20260901084411 74 214 0.0 0.0 0.00 0.00 0.00 71 1009.2
20260901083910 74 214 0.0 0.0 0.00 0.00 0.00 71 1009.1
20260901083406 74 214 0.0 0.0 0.00 0.00 0.00 71 1009.2
20260901082905 74 214 0.0 0.0 0.00 0.00 0.00 70 1009.2
20260901082403 74 214 0.0 0.0 0.00 0.00 0.00 70 1009.3
20260901081901 74 214 0.0 0.0 0.00 0.00 0.00 70 1009.2
20260901081400 74 214 0.0 0.0 0.00 0.00 0.00 70 1009.2
20260901080859 74 214 0.0 0.0 0.00 0.00 0.00 70 1009.1
20260901080355 74 214 0.0 0.0 0.00 0.00 0.00 70 1009.1
20260901080120 74 214 0.0 0.0 0.00 0.00 0.00 70 1009.1
20260901075616 74 214 0.0 0.0 0.00 0.00 0.00 70 1009.2
20260901074351 74 214 0.0 0.0 0.00 0.00 0.00 70 1009.4
20260901073347 74 214 0.0 1.0 0.00 0.00 0.00 70 1009.5
20260901072846 74 214 0.0 0.0 0.00 0.00 0.00 70 1009.5
20260901072612 74 214 0.0 0.0 0.00 0.00 0.00 70 1009.6
20260901071842 74 214 0.0 1.0 0.00 0.00 0.00 70 1009.6
20260901071343 74 214 0.0 1.0 0.00 0.00 0.00 70 1009.6
20260901070843 74 214 0.0 1.0 0.00 0.00 0.00 70 1009.6
20260901070343 74 234 0.0 1.0 0.00 0.00 0.00 70 1009.7
20260901065843 74 234 0.0 0.0 0.00 0.00 0.00 70 1009.7
20260901065343 74 234 0.0 1.0 0.00 0.00 0.00 70 1009.8
20260901064843 74 234 0.0 1.0 0.00 0.00 0.00 70 1009.8
20260901064342 74 234 0.0 1.0 0.00 0.00 0.00 70 1009.9
20260901063842 74 234 0.0 1.0 0.00 0.00 0.00 70 1009.9
20260901063339 74 248 0.0 1.0 0.00 0.00 0.00 70 1009.7
20260901062840 74 62 0.0 0.0 0.00 0.00 0.00 70 1009.7
20260901062339 74 62 0.0 1.0 0.00 0.00 0.00 70 1009.6
20260901061840 74 62 0.0 1.0 0.00 0.00 0.00 70 1009.7
20260901061340 73 62 0.0 0.0 0.00 0.00 0.00 71 1009.9
20260901060840 74 62 0.0 0.0 0.00 0.00 0.00 70 1009.9
20260901060339 74 62 0.0 0.0 0.00 0.00 0.00 71 1009.9
20260901055339 74 62 0.0 0.0 0.00 0.00 0.00 70 1009.9
20260901054841 74 62 0.0 0.0 0.00 0.00 0.00 70 1010.0
20260901054339 74 62 0.0 0.0 0.00 0.00 0.00 70 1010.1
20260901054112 74 62 0.0 0.0 0.00 0.00 0.00 70 1010.1
20260901053339 74 62 0.0 0.0 0.00 0.00 0.00 70 1010.1
20260901052840 74 62 0.0 0.0 0.00 0.00 0.00 70 1010.2
20260901052339 74 62 0.0 0.0 0.00 0.00 0.00 71 1010.2
20260901051840 74 62 0.0 0.0 0.00 0.00 0.00 71 1010.3
20260901051340 74 62 0.0 0.0 0.00 0.00 0.00 70 1010.3
20260901050840 74 62 0.0 0.0 0.00 0.00 0.00 70 1010.4
20260901050340 74 62 0.0 0.0 0.00 0.00 0.00 70 1010.4
20260901045339 74 62 0.0 0.0 0.00 0.00 0.00 71 1010.6
20260901044840 74 62 0.0 0.0 0.00 0.00 0.00 71 1010.6
20260901044340 74 62 0.0 0.0 0.00 0.00 0.00 71 1010.5
20260901044100 74 62 0.0 0.0 0.00 0.00 0.00 70 1010.6
20260901043339 74 62 0.0 0.0 0.00 0.00 0.00 70 1010.6
20260901042838 74 62 0.0 0.0 0.00 0.00 0.00 70 1010.7
20260901041833 74 62 0.0 0.0 0.00 0.00 0.00 70 1010.8
20260901041329 74 62 0.0 0.0 0.00 0.00 0.00 70 1010.7
20260901040823 75 62 0.0 0.0 0.00 0.00 0.00 70 1010.7
20260901040534 74 62 0.0 0.0 0.00 0.00 0.00 70 1010.7
20260901035810 74 62 0.0 0.0 0.00 0.00 0.00 71 1010.6
20260901035306 74 62 0.0 0.0 0.00 0.00 0.00 71 1010.7
20260901034758 75 62 0.0 0.0 0.00 0.00 0.00 71 1010.7
20260901034522 75 62 0.0 0.0 0.00 0.00 0.00 71 1010.8
20260901033746 75 62 0.0 0.0 0.00 0.00 0.00 71 1010.7
20260901033241 75 62 0.0 0.0 0.00 0.00 0.00 71 1010.6
20260901032959 75 62 0.0 0.0 0.00 0.00 0.00 71 1010.6
20260901032228 75 62 0.0 0.0 0.00 0.00 0.00 71 1010.6
20260901031723 75 62 0.0 0.0 0.00 0.00 0.00 71 1010.7
20260901031216 75 62 0.0 0.0 0.00 0.00 0.00 71 1010.7
20260901030710 75 62 0.0 0.0 0.00 0.00 0.00 71 1010.7
20260901030204 75 62 0.0 0.0 0.00 0.00 0.00 71 1010.7
20260901025925 75 62 0.0 0.0 0.00 0.00 0.00 72 1010.6
20260901025422 75 62 0.0 0.0 0.00 0.00 0.00 72 1010.6
20260901024654 75 62 0.0 0.0 0.00 0.00 0.00 73 1010.5
20260901024152 75 62 0.0 0.0 0.00 0.00 0.00 72 1010.4
20260901023650 75 62 0.0 0.0 0.00 0.00 0.00 74 1010.5
20260901023411 75 62 0.0 0.0 0.00 0.00 0.00 74 1010.5
20260901022646 75 62 0.0 0.0 0.00 0.00 0.00 74 1010.7
20260901022143 75 62 0.0 0.0 0.00 0.00 0.00 74 1010.7
20260901021641 75 62 0.0 0.0 0.00 0.00 0.00 74 1010.7
20260901021140 75 62 0.0 0.0 0.00 0.00 0.00 74 1010.7
20260901020640 75 62 0.0 0.0 0.00 0.00 0.00 75 1010.6
20260901015902 75 62 0.0 0.0 0.00 0.00 0.00 76 1010.6
20260901015140 75 62 0.0 0.0 0.00 0.00 0.00 76 1010.6
20260901014640 75 62 0.0 0.0 0.00 0.00 0.00 76 1010.6
20260901014400 75 62 0.0 0.0 0.00 0.00 0.00 77 1010.6
20260901013905 75 62 0.0 0.0 0.00 0.00 0.00 77 1010.7
20260901013140 76 62 0.0 0.0 0.00 0.00 0.00 78 1010.7
20260901012638 76 62 0.0 0.0 0.00 0.00 0.00 78 1010.8
20260901012138 76 62 0.0 0.0 0.00 0.00 0.00 77 1010.8
20260901011631 76 62 0.0 0.0 0.00 0.00 0.00 78 1010.7
20260901011125 76 62 0.0 0.0 0.00 0.00 0.00 78 1010.7
20260901010844 76 62 0.0 0.0 0.00 0.00 0.00 79 1010.7
20260901010113 76 62 0.0 0.0 0.00 0.00 0.00 79 1010.7
20260901005607 76 62 0.0 0.0 0.00 0.00 0.00 79 1010.6
20260901005101 76 62 0.0 0.0 0.00 0.00 0.00 80 1010.5
20260901004812 76 62 0.0 0.0 0.00 0.00 0.00 80 1010.4
20260901004049 76 62 0.0 0.0 0.00 0.00 0.00 80 1010.3
20260901003808 76 62 0.0 0.0 0.00 0.00 0.00 80 1010.4
20260901003040 76 62 0.0 0.0 0.00 0.00 0.00 81 1010.3
20260901002540 77 62 0.0 0.0 0.00 0.00 0.00 82 1010.3
20260901002305 77 62 0.0 0.0 0.00 0.00 0.00 82 1010.3
20260901001537 77 62 0.0 0.0 0.00 0.00 0.00 82 1010.3
20260901001037 77 62 0.0 0.0 0.00 0.00 0.00 83 1010.3
20260901000536 77 62 0.0 0.0 0.00 0.00 0.00 83 1010.3
20260901000035 77 62 0.0 0.0 0.00 0.00 0.00 83 1010.3
20260831235536 77 62 0.0 0.0 0.00 0.00 0.00 83 1010.3
20260831235036 78 62 0.0 0.0 0.00 0.00 0.00 83 1010.2
20260831234535 78 62 0.0 0.0 0.00 0.00 0.00 84 1010.3
20260831234036 78 62 0.0 0.0 0.00 0.00 0.00 84 1010.3
20260831233532 78 62 0.0 0.0 0.00 0.00 0.00 84 1010.4
20260831233032 78 62 0.0 0.0 0.00 0.00 0.00 84 1010.4
20260831232532 79 62 0.0 0.0 0.00 0.00 0.00 84 1010.4
20260831232031 79 62 0.0 0.0 0.00 0.00 0.00 84 1010.5
20260831231532 79 62 0.0 0.0 0.00 0.00 0.00 84 1010.6
20260831231032 79 62 0.0 0.0 0.00 0.00 0.00 84 1010.6
20260831230532 79 62 0.0 0.0 0.00 0.00 0.00 84 1010.6
20260831230257 80 62 0.0 0.0 0.00 0.00 0.00 84 1010.7
20260831225532 80 62 0.0 0.0 0.00 0.00 0.00 84 1010.7
20260831225027 80 62 0.0 0.0 0.00 0.00 0.00 84 1010.7
20260831224527 80 62 0.0 0.0 0.00 0.00 0.00 84 1010.8
20260831224027 80 62 0.0 0.0 0.00 0.00 0.00 84 1010.8
20260831223527 80 62 0.0 0.0 0.00 0.00 0.00 83 1010.8
20260831223027 80 62 0.0 0.0 0.00 0.00 0.00 83 1010.9
20260831222530 80 62 0.0 0.0 0.00 0.00 0.00 83 1010.9
20260831222030 80 62 0.0 0.0 0.00 0.00 0.00 83 1010.9
20260831221529 81 62 0.0 0.0 0.00 0.00 0.00 82 1011.0
20260831221030 81 62 0.0 0.0 0.00 0.00 0.00 82 1011.0
20260831220525 82 62 0.0 0.0 0.00 0.00 0.00 82 1011.0
20260831220025 82 62 0.0 0.0 0.00 0.00 0.00 82 1011.1
20260831215526 82 62 0.0 0.0 0.00 0.00 0.00 81 1011.1
20260831215023 83 62 0.0 0.0 0.00 0.00 0.00 81 1011.1
20260831214523 83 62 0.0 0.0 0.00 0.00 0.00 80 1011.0
20260831214023 83 62 0.0 0.0 0.00 0.00 0.00 79 1011.1
20260831213523 83 62 0.0 0.0 0.00 0.00 0.00 79 1011.0
20260831213023 84 61 0.0 0.0 0.00 0.00 0.00 79 1010.9
20260831212524 84 62 0.0 0.0 0.00 0.00 0.00 79 1010.9
20260831212020 84 62 0.0 0.0 0.00 0.00 0.00 78 1010.9
20260831211520 84 61 0.0 0.0 0.00 0.00 0.00 77 1010.8
20260831211020 84 61 0.0 0.0 0.00 0.00 0.00 76 1010.7
20260831210520 84 61 0.0 0.0 0.00 0.00 0.00 75 1010.7
20260831210020 84 61 0.0 0.0 0.00 0.00 0.00 75 1010.8
20260831205520 85 61 0.0 0.0 0.00 0.00 0.00 76 1010.8
20260831205017 85 62 0.0 0.0 0.00 0.00 0.00 75 1010.8
20260831204517 85 62 0.0 0.0 0.00 0.00 0.00 76 1010.7
20260831204017 85 61 0.0 0.0 0.00 0.00 0.00 77 1010.8
20260831203742 85 61 0.0 1.0 0.00 0.00 0.00 77 1010.7
20260831203011 85 61 0.0 1.0 0.00 0.00 0.00 77 1010.7
20260831202504 85 62 0.0 1.0 0.00 0.00 0.00 76 1010.7
20260831202000 85 61 0.0 1.0 0.00 0.00 0.00 75 1010.7
20260831201452 85 61 0.0 0.0 0.00 0.00 0.00 76 1010.7
20260831200947 85 61 0.0 0.0 0.00 0.00 0.00 76 1010.8
20260831200441 85 62 0.0 0.0 0.00 0.00 0.00 76 1010.8
20260831195935 85 61 0.0 0.0 0.00 0.00 0.00 75 1010.8
20260831195653 85 61 0.0 2.0 0.00 0.00 0.00 75 1010.8
20260831194935 85 61 0.0 2.0 0.00 0.00 0.00 74 1010.9
20260831194435 86 49 0.0 2.0 0.00 0.00 0.00 75 1010.9
20260831193936 86 49 0.0 2.0 0.00 0.00 0.00 73 1011.0
20260831193436 87 225 0.0 1.0 0.00 0.00 0.00 73 1011.1
20260831192938 87 225 0.0 1.0 0.00 0.00 0.00 74 1011.1
20260831192435 87 225 0.0 2.0 0.00 0.00 0.00 74 1011.2
20260831191935 86 238 1.0 5.0 0.00 0.00 0.00 76 1011.2
20260831191656 86 59 0.0 5.0 0.00 0.00 0.00 75 1011.2
20260831191155 86 100 0.0 3.0 0.00 0.00 0.00 76 1011.3
20260831190435 86 100 0.0 3.0 0.00 0.00 0.00 74 1011.3
20260831185935 86 231 0.0 0.0 0.00 0.00 0.00 77 1011.4
20260831185435 85 231 0.0 2.0 0.00 0.00 0.00 77 1011.5
20260831184933 85 231 0.0 2.0 0.00 0.00 0.00 77 1011.4
20260831184433 86 4 0.0 1.0 0.00 0.00 0.00 76 1011.4
20260831183933 86 6 0.0 1.0 0.00 0.00 0.00 74 1011.4
20260831183653 86 6 0.0 1.0 0.00 0.00 0.00 73 1011.5
20260831182929 86 6 0.0 1.0 0.00 0.00 0.00 70 1011.5
20260831182423 87 5 0.0 2.0 0.00 0.00 0.00 71 1011.5
20260831181917 87 86 0.0 2.0 0.00 0.00 0.00 69 1011.4
20260831181412 88 146 0.0 2.0 0.00 0.00 0.00 70 1011.4
20260831180905 87 210 0.0 2.0 0.00 0.00 0.00 69 1011.4
20260831180359 87 64 0.0 2.0 0.00 0.00 0.00 69 1011.4
20260831175853 87 239 0.0 2.0 0.00 0.00 0.00 70 1011.4
20260831175347 87 130 0.0 1.0 0.00 0.00 0.00 71 1011.5
20260831174842 86 130 1.0 2.0 0.00 0.00 0.00 71 1011.5
20260831174335 86 130 1.0 2.0 0.00 0.00 0.00 75 1011.6
20260831173829 85 258 1.0 4.0 0.00 0.00 0.00 76 1011.8
20260831173323 85 248 0.0 4.0 0.00 0.00 0.00 77 1011.9
20260831172817 84 66 1.0 3.0 0.00 0.00 0.00 79 1011.9
20260831172312 84 66 1.0 4.0 0.00 0.00 0.00 78 1011.9
20260831171806 83 56 0.0 4.0 0.00 0.00 0.00 79 1011.9
20260831171259 83 76 0.0 1.0 0.00 0.00 0.00 78 1011.9
20260831170753 83 76 0.0 2.0 0.00 0.00 0.00 78 1012.0
20260831170513 84 76 0.0 4.0 0.00 0.00 0.00 78 1012.1
20260831165742 84 56 0.0 4.0 0.00 0.00 0.00 78 1012.1
20260831165457 84 241 0.0 3.0 0.00 0.00 0.00 80 1012.1
20260831164729 83 68 1.0 3.0 0.00 0.00 0.00 79 1012.2
20260831164223 83 226 0.0 2.0 0.00 0.00 0.00 81 1012.2
20260831163941 82 226 1.0 4.0 0.00 0.00 0.00 81 1012.2
20260831163212 82 357 1.0 6.0 0.00 0.00 0.00 81 1012.3
20260831162705 82 53 1.0 6.0 0.00 0.00 0.00 82 1012.2
20260831162159 82 238 1.0 4.0 0.00 0.00 0.00 82 1012.3